User: anonymous   Login
Location: Lake Runnemede Observatory
(43.4843°N, 72.3851°W)
Time: 01:19:45
(UTC-04:00)
Language:

SPOT 5 - Orbit

View from above orbital plane
View from above orbital plane
View from above satellite
View from above satellite

Ground track
Ground track

The orbit data is extracted from the following two-line orbital elements,

1 27421U 02021A   15117.86364631  .00000281  00000-0  14948-3 0  9993
2 27421 098.5163 175.2908 0001100 092.9221 017.4312 14.20892812672986
Epoch (UTC): 27 April 2015 20:43:39
Eccentricity: 0.0001100
inclination: 98.5163°
perigee height: 821 km
apogee height: 823 km
right ascension of ascending node: 175.2908°
argument of perigee: 92.9221°
revolutions per day: 14.20892812
mean anomaly at epoch: 17.4312°
orbit number at epoch: 67298

The dashed part of the orbit path shows where the satellite is in the earth's shadow,  

DLR